User: anonymous   Login
Location: Hoyos del Collado
(40.3594°N, 5.2003°W)
Time: 22:32:35
(UTC+00:00)
Language:

PSLV R/B - Orbit

View from above orbital plane
View from above orbital plane
View from above satellite
View from above satellite

Ground track
Ground track

The orbit data is extracted from the following two-line orbital elements,

1 26960U 01049D   24170.60139244  .00013876  00000-0  55053-3 0  9996
2 26960  97.7342 216.9319 0039738  78.4345 282.1348 15.24741994240245
Epoch (UTC): 18 June 2024 14:26:00
Eccentricity: 0.0039738
inclination: 97.7342°
perigee height: 464 km
apogee height: 519 km
right ascension of ascending node: 216.9319°
argument of perigee: 78.4345°
revolutions per day: 15.24741994
mean anomaly at epoch: 282.1348°
orbit number at epoch: 24024

The dashed part of the orbit path shows where the satellite is in the earth's shadow,  

DLR